| time (UTC) | temp C | wind direction | speed KPH | gust KPH | rain 1hr cm | rain 24hr cm | rain mn cm | humidity % | barometer mb |
| 20260508135836 | 10 | 270 | 0.0 | 0.0 | 0.00 | 0.00 | 0.00 | 68 | 1004.6 |
| 20260508134816 | 10 | 270 | 0.0 | 0.0 | 0.00 | 0.00 | 0.00 | 69 | 1004.5 |
| 20260508134306 | 10 | 270 | 0.0 | 0.0 | 0.00 | 0.00 | 0.00 | 70 | 1004.8 |
| 20260508133757 | 9 | 270 | 0.0 | 0.0 | 0.00 | 0.00 | 0.00 | 69 | 1004.5 |
| 20260508133246 | 10 | 270 | 0.0 | 0.0 | 0.00 | 0.00 | 0.00 | 70 | 1004.2 |
| 20260508132736 | 10 | 293 | 0.0 | 0.0 | 0.00 | 0.00 | 0.00 | 69 | 1004.3 |
| 20260508132226 | 10 | 270 | 0.0 | 0.0 | 0.00 | 0.00 | 0.00 | 69 | 1004.1 |
| 20260508131206 | 9 | 270 | 0.0 | 0.0 | 0.00 | 0.00 | 0.00 | 70 | 1004.1 |
| 20260508130655 | 9 | 270 | 0.0 | 0.0 | 0.00 | 0.00 | 0.00 | 71 | 1004.3 |
| 20260508125636 | 9 | 270 | 0.0 | 0.0 | 0.00 | 0.00 | 0.00 | 71 | 1004.0 |
| 20260508125125 | 9 | 270 | 0.0 | 0.0 | 0.00 | 0.00 | 0.00 | 71 | 1004.3 |
| 20260508124618 | 9 | 270 | 0.0 | 0.0 | 0.00 | 0.00 | 0.00 | 71 | 1004.3 |
| 20260508124105 | 9 | 270 | 0.0 | 0.0 | 0.00 | 0.00 | 0.00 | 71 | 1004.1 |
| 20260508123554 | 9 | 293 | 0.0 | 0.0 | 0.00 | 0.00 | 0.00 | 72 | 1004.4 |
| 20260508123047 | 8 | 293 | 0.0 | 0.0 | 0.00 | 0.00 | 0.00 | 73 | 1004.3 |
| 20260508122535 | 8 | 270 | 0.0 | 0.0 | 0.00 | 0.00 | 0.00 | 73 | 1004.3 |
| 20260508122035 | 8 | 270 | 0.0 | 0.0 | 0.00 | 0.00 | 0.00 | 73 | 1004.3 |
| 20260508121517 | 8 | 270 | 0.0 | 0.0 | 0.00 | 0.00 | 0.00 | 74 | 1004.2 |
| 20260508120454 | 8 | 293 | 0.0 | 0.0 | 0.00 | 0.00 | 0.00 | 75 | 1004.4 |
| 20260508115944 | 8 | 270 | 0.0 | 0.0 | 0.00 | 0.00 | 0.00 | 75 | 1004.0 |
| 20260508115434 | 8 | 270 | 0.0 | 0.0 | 0.00 | 0.00 | 0.00 | 76 | 1004.1 |
| 20260508114923 | 8 | 248 | 0.0 | 0.0 | 0.00 | 0.00 | 0.00 | 76 | 1003.8 |
| 20260508114413 | 8 | 270 | 0.0 | 0.0 | 0.00 | 0.00 | 0.00 | 76 | 1003.9 |
| 20260508113904 | 8 | 248 | 0.0 | 0.0 | 0.00 | 0.00 | 0.00 | 75 | 1004.0 |
| 20260508113354 | 8 | 270 | 0.0 | 0.0 | 0.00 | 0.00 | 0.00 | 75 | 1003.7 |
| 20260508112843 | 8 | 270 | 0.0 | 0.0 | 0.00 | 0.00 | 0.00 | 73 | 1003.7 |
| 20260508112333 | 8 | 293 | 0.0 | 0.0 | 0.00 | 0.00 | 0.00 | 72 | 1003.6 |
| 20260508111823 | 8 | 293 | 0.0 | 0.0 | 0.00 | 0.00 | 0.00 | 71 | 1003.6 |
| 20260508111313 | 8 | 293 | 0.0 | 0.0 | 0.00 | 0.00 | 0.00 | 70 | 1003.4 |
| 20260508110803 | 8 | 293 | 0.0 | 0.0 | 0.00 | 0.00 | 0.00 | 70 | 1003.3 |
| 20260508110252 | 8 | 248 | 0.0 | 0.0 | 0.00 | 0.00 | 0.00 | 70 | 1003.5 |
| 20260508105745 | 8 | 270 | 0.0 | 0.0 | 0.00 | 0.00 | 0.00 | 69 | 1003.1 |
| 20260508105232 | 8 | 248 | 0.0 | 0.0 | 0.00 | 0.00 | 0.00 | 69 | 1003.2 |
| 20260508104722 | 8 | 248 | 0.0 | 0.0 | 0.00 | 0.00 | 0.00 | 69 | 1003.1 |
| 20260508104212 | 8 | 293 | 0.0 | 0.0 | 0.00 | 0.00 | 0.00 | 69 | 1003.1 |
| 20260508103703 | 8 | 270 | 0.0 | 0.0 | 0.00 | 0.00 | 0.00 | 69 | 1003.2 |
| 20260508103152 | 8 | 293 | 0.0 | 0.0 | 0.00 | 0.00 | 0.00 | 70 | 1002.9 |
| 20260508102645 | 8 | 270 | 0.0 | 0.0 | 0.00 | 0.00 | 0.00 | 70 | 1003.1 |
| 20260508102131 | 8 | 270 | 0.0 | 0.0 | 0.00 | 0.00 | 0.00 | 70 | 1002.9 |
| 20260508101622 | 8 | 270 | 0.0 | 0.0 | 0.00 | 0.00 | 0.00 | 70 | 1002.7 |
| 20260508101111 | 8 | 270 | 0.0 | 0.0 | 0.00 | 0.00 | 0.00 | 70 | 1002.7 |
| 20260508100601 | 8 | 270 | 0.0 | 0.0 | 0.00 | 0.00 | 0.00 | 70 | 1002.8 |
| 20260508100052 | 8 | 270 | 0.0 | 0.0 | 0.00 | 0.00 | 0.00 | 69 | 1002.5 |
| 20260508095541 | 8 | 270 | 0.0 | 0.0 | 0.00 | 0.00 | 0.00 | 69 | 1002.3 |
| 20260508094015 | 8 | 270 | 0.0 | 0.0 | 0.00 | 0.00 | 0.00 | 68 | 1002.4 |
| 20260508093500 | 8 | 315 | 0.0 | 0.0 | 0.00 | 0.00 | 0.00 | 68 | 1002.2 |
| 20260508092950 | 8 | 270 | 0.0 | 0.0 | 0.00 | 0.00 | 0.00 | 68 | 1002.2 |
| 20260508092441 | 8 | 248 | 0.0 | 0.0 | 0.00 | 0.00 | 0.00 | 68 | 1002.0 |
| 20260508091930 | 8 | 225 | 0.0 | 0.0 | 0.00 | 0.00 | 0.00 | 68 | 1001.9 |
| 20260508091420 | 8 | 270 | 0.0 | 0.0 | 0.00 | 0.00 | 0.00 | 68 | 1002.0 |
| 20260508090910 | 8 | 270 | 0.0 | 0.0 | 0.00 | 0.00 | 0.00 | 68 | 1002.0 |
| 20260508090402 | 8 | 270 | 0.0 | 0.0 | 0.00 | 0.00 | 0.00 | 69 | 1001.9 |
| 20260508085340 | 8 | 270 | 0.0 | 0.0 | 0.00 | 0.00 | 0.00 | 68 | 1001.8 |
| 20260508084319 | 8 | 270 | 0.0 | 0.0 | 0.00 | 0.00 | 0.00 | 69 | 1001.6 |
| 20260508083809 | 8 | 248 | 0.0 | 0.0 | 0.00 | 0.00 | 0.00 | 70 | 1001.6 |
| 20260508083300 | 8 | 293 | 0.0 | 0.0 | 0.00 | 0.00 | 0.00 | 71 | 1001.5 |
| 20260508082749 | 8 | 293 | 0.0 | 0.0 | 0.00 | 0.00 | 0.00 | 71 | 1001.7 |
| 20260508082239 | 9 | 293 | 0.0 | 0.0 | 0.00 | 0.00 | 0.00 | 71 | 1001.6 |
| 20260508081729 | 9 | 248 | 0.0 | 0.0 | 0.00 | 0.00 | 0.00 | 70 | 1001.7 |
| 20260508081219 | 9 | 270 | 0.0 | 0.0 | 0.00 | 0.00 | 0.00 | 72 | 1001.6 |
| 20260508080709 | 9 | 293 | 0.0 | 0.0 | 0.00 | 0.00 | 0.00 | 74 | 1001.4 |
| 20260508080158 | 9 | 315 | 0.0 | 0.0 | 0.00 | 0.00 | 0.00 | 75 | 1001.6 |
| 20260508075648 | 9 | 270 | 0.0 | 0.0 | 0.00 | 0.00 | 0.00 | 75 | 1001.8 |
| 20260508075138 | 9 | 270 | 0.0 | 0.0 | 0.00 | 0.00 | 0.00 | 76 | 1001.8 |
| 20260508074628 | 9 | 270 | 0.0 | 0.0 | 0.00 | 0.00 | 0.00 | 78 | 1001.9 |
| 20260508074118 | 9 | 315 | 0.0 | 0.0 | 0.00 | 0.00 | 0.00 | 80 | 1001.7 |
| 20260508073608 | 9 | 315 | 0.0 | 0.0 | 0.00 | 0.00 | 0.00 | 80 | 1001.7 |
| 20260508072549 | 9 | 270 | 0.0 | 0.0 | 0.00 | 0.00 | 0.00 | 80 | 1001.9 |
| 20260508071527 | 9 | 293 | 0.0 | 0.0 | 0.00 | 0.00 | 0.00 | 79 | 1001.8 |
| 20260508071017 | 9 | 293 | 0.0 | 0.0 | 0.00 | 0.00 | 0.00 | 78 | 1001.9 |
| 20260508070507 | 9 | 270 | 0.0 | 0.0 | 0.00 | 0.00 | 0.00 | 78 | 1002.0 |
| 20260508065957 | 9 | 293 | 0.0 | 0.0 | 0.00 | 0.00 | 0.00 | 78 | 1001.8 |
| 20260508065447 | 9 | 270 | 0.0 | 0.0 | 0.00 | 0.00 | 0.00 | 77 | 1002.0 |
| 20260508064937 | 9 | 270 | 0.0 | 0.0 | 0.00 | 0.00 | 0.00 | 77 | 1001.8 |
| 20260508064427 | 9 | 248 | 0.0 | 0.0 | 0.00 | 0.00 | 0.00 | 77 | 1001.9 |
| 20260508063916 | 9 | 270 | 0.0 | 0.0 | 0.00 | 0.00 | 0.00 | 76 | 1001.9 |
| 20260508063408 | 9 | 293 | 0.0 | 0.0 | 0.00 | 0.00 | 0.00 | 76 | 1001.9 |
| 20260508062347 | 9 | 293 | 0.0 | 0.0 | 0.00 | 0.00 | 0.00 | 75 | 1002.1 |
| 20260508061836 | 10 | 270 | 0.0 | 0.0 | 0.00 | 0.00 | 0.00 | 75 | 1002.2 |
| 20260508061326 | 10 | 270 | 0.0 | 0.0 | 0.00 | 0.00 | 0.00 | 75 | 1002.1 |
| 20260508060306 | 10 | 270 | 0.0 | 0.0 | 0.00 | 0.00 | 0.00 | 75 | 1002.3 |
| 20260508055756 | 10 | 293 | 0.0 | 0.0 | 0.00 | 0.00 | 0.00 | 76 | 1002.6 |
| 20260508055246 | 10 | 293 | 0.0 | 0.0 | 0.00 | 0.00 | 0.00 | 76 | 1002.2 |
| 20260508054735 | 10 | 270 | 0.0 | 0.0 | 0.00 | 0.00 | 0.00 | 76 | 1002.4 |
| 20260508054226 | 10 | 270 | 0.0 | 0.0 | 0.00 | 0.00 | 0.00 | 76 | 1002.6 |
| 20260508053716 | 10 | 270 | 0.0 | 0.0 | 0.00 | 0.00 | 0.00 | 76 | 1002.3 |
| 20260508053205 | 10 | 315 | 0.0 | 0.0 | 0.00 | 0.00 | 0.00 | 77 | 1002.5 |
| 20260508052655 | 10 | 270 | 0.0 | 0.0 | 0.00 | 0.00 | 0.00 | 77 | 1002.3 |
| 20260508052145 | 10 | 248 | 0.0 | 0.0 | 0.00 | 0.00 | 0.00 | 77 | 1002.4 |
| 20260508051635 | 10 | 270 | 0.0 | 0.0 | 0.00 | 0.00 | 0.00 | 79 | 1002.3 |
| 20260508051125 | 10 | 293 | 0.0 | 0.0 | 0.00 | 0.00 | 0.00 | 79 | 1002.5 |
| 20260508050615 | 10 | 270 | 0.0 | 0.0 | 0.00 | 0.00 | 0.00 | 80 | 1002.4 |
| 20260508050114 | 10 | 248 | 0.0 | 0.0 | 0.00 | 0.00 | 0.00 | 80 | 1002.3 |
| 20260508045555 | 10 | 293 | 0.0 | 0.0 | 0.00 | 0.00 | 0.00 | 80 | 1002.4 |
| 20260508045045 | 10 | 293 | 0.0 | 0.0 | 0.00 | 0.00 | 0.00 | 80 | 1002.3 |
| 20260508044534 | 10 | 270 | 0.0 | 0.0 | 0.00 | 0.00 | 0.00 | 81 | 1002.1 |
| 20260508044024 | 9 | 248 | 0.0 | 0.0 | 0.00 | 0.00 | 0.00 | 82 | 1002.1 |
| 20260508043514 | 9 | 248 | 0.0 | 0.0 | 0.00 | 0.00 | 0.00 | 84 | 1002.1 |
| 20260508043003 | 9 | 270 | 0.0 | 0.0 | 0.00 | 0.00 | 0.00 | 85 | 1002.1 |
| 20260508042454 | 9 | 270 | 0.0 | 0.0 | 0.00 | 0.00 | 0.00 | 86 | 1002.3 |
| 20260508041943 | 9 | 270 | 0.0 | 0.0 | 0.00 | 0.00 | 0.00 | 88 | 1002.1 |
| 20260508040923 | 8 | 248 | 0.0 | 0.0 | 0.00 | 0.00 | 0.00 | 91 | 1002.1 |
| 20260508040413 | 8 | 248 | 0.0 | 0.0 | 0.00 | 0.00 | 0.00 | 94 | 1002.1 |
| 20260508035903 | 8 | 248 | 0.0 | 0.0 | 0.00 | 0.00 | 0.00 | 95 | 1002.2 |
| 20260508034333 | 8 | 248 | 0.0 | 0.0 | 0.00 | 0.00 | 0.00 | 95 | 1002.4 |
| 20260508033823 | 8 | 270 | 0.0 | 0.0 | 0.00 | 0.00 | 0.00 | 95 | 1002.2 |
| 20260508033313 | 8 | 248 | 0.0 | 0.0 | 0.00 | 0.00 | 0.00 | 95 | 1002.3 |
| 20260508032803 | 8 | 248 | 0.0 | 0.0 | 0.00 | 0.00 | 0.00 | 94 | 1002.4 |
| 20260508031232 | 9 | 270 | 0.0 | 0.0 | 0.00 | 0.00 | 0.00 | 91 | 1002.2 |
| 20260508030722 | 9 | 270 | 0.0 | 0.0 | 0.00 | 0.00 | 0.00 | 91 | 1002.1 |
| 20260508030212 | 9 | 270 | 0.0 | 0.0 | 0.00 | 0.00 | 0.00 | 92 | 1002.1 |
| 20260508025702 | 9 | 225 | 0.0 | 0.0 | 0.00 | 0.00 | 1.85 | 93 | 1002.3 |
| 20260508024641 | 9 | 270 | 0.0 | 0.0 | 0.00 | 0.00 | 1.85 | 92 | 1002.1 |
| 20260508024132 | 9 | 270 | 0.0 | 0.0 | 0.00 | 0.00 | 1.85 | 91 | 1002.1 |
| 20260508023621 | 10 | 248 | 0.0 | 0.0 | 0.00 | 0.00 | 1.85 | 91 | 1002.1 |
| 20260508023111 | 10 | 248 | 0.0 | 0.0 | 0.00 | 0.00 | 1.85 | 91 | 1002.0 |
| 20260508022601 | 10 | 270 | 0.0 | 0.0 | 0.00 | 0.00 | 1.85 | 90 | 1002.0 |
| 20260508022051 | 10 | 270 | 0.0 | 0.0 | 0.00 | 0.00 | 1.85 | 90 | 1002.2 |
| 20260508021542 | 10 | 248 | 0.0 | 0.0 | 0.00 | 0.00 | 1.85 | 89 | 1001.9 |
| 20260508020521 | 10 | 270 | 0.0 | 0.0 | 0.00 | 0.00 | 1.85 | 89 | 1001.9 |
| 20260508020011 | 10 | 270 | 0.0 | 0.0 | 0.00 | 0.00 | 1.85 | 89 | 1001.9 |
| 20260508015500 | 10 | 270 | 0.0 | 0.0 | 0.00 | 0.00 | 1.85 | 90 | 1001.9 |
| 20260508014950 | 10 | 248 | 0.0 | 0.0 | 0.00 | 0.00 | 1.85 | 90 | 1001.8 |
| 20260508014441 | 10 | 270 | 0.0 | 0.0 | 0.00 | 0.00 | 1.85 | 90 | 1001.7 |
| 20260508013420 | 10 | 248 | 0.0 | 0.0 | 0.00 | 0.00 | 1.85 | 90 | 1001.8 |
| 20260508012910 | 10 | 270 | 0.0 | 0.0 | 0.00 | 0.00 | 1.85 | 90 | 1001.8 |
| 20260508012359 | 10 | 293 | 0.0 | 0.0 | 0.00 | 0.00 | 1.85 | 90 | 1001.7 |
| 20260508011850 | 10 | 293 | 0.0 | 0.0 | 0.00 | 0.00 | 1.85 | 89 | 1001.7 |
| 20260508011339 | 11 | 248 | 0.0 | 0.0 | 0.00 | 0.00 | 1.85 | 89 | 1001.9 |
| 20260508010830 | 11 | 293 | 0.0 | 0.0 | 0.00 | 0.00 | 1.85 | 89 | 1001.6 |
| 20260508010319 | 11 | 248 | 0.0 | 0.0 | 0.00 | 0.00 | 1.85 | 89 | 1001.5 |
| 20260508005810 | 11 | 293 | 0.0 | 0.0 | 0.00 | 0.00 | 1.85 | 90 | 1001.9 |
| 20260508005259 | 11 | 270 | 0.0 | 0.0 | 0.00 | 0.00 | 1.85 | 90 | 1001.6 |
| 20260508004749 | 11 | 248 | 0.0 | 0.0 | 0.00 | 0.00 | 1.85 | 90 | 1001.7 |
| 20260508004243 | 11 | 293 | 0.0 | 0.0 | 0.00 | 0.00 | 1.85 | 91 | 1001.6 |
| 20260508003729 | 11 | 270 | 0.0 | 0.0 | 0.00 | 0.00 | 1.85 | 91 | 1002.0 |
| 20260508002709 | 11 | 248 | 0.0 | 0.0 | 0.00 | 0.00 | 1.85 | 91 | 1002.2 |
| 20260508002159 | 11 | 293 | 0.0 | 0.0 | 0.00 | 0.00 | 1.85 | 91 | 1002.2 |
| 20260508001649 | 11 | 293 | 0.0 | 0.0 | 0.00 | 0.00 | 1.85 | 89 | 1002.4 |
| 20260508001138 | 11 | 315 | 0.0 | 0.0 | 0.00 | 0.00 | 1.85 | 88 | 1002.3 |
| 20260508000628 | 11 | 293 | 0.0 | 0.0 | 0.00 | 0.00 | 1.85 | 88 | 1002.2 |
| 20260508000118 | 11 | 248 | 0.0 | 0.0 | 0.00 | 0.00 | 1.85 | 87 | 1002.6 |
| 20260507235608 | 11 | 270 | 0.0 | 0.0 | 0.00 | 0.00 | 1.85 | 87 | 1002.5 |
| 20260507235058 | 11 | 293 | 0.0 | 0.0 | 0.00 | 0.00 | 1.85 | 87 | 1002.5 |
| 20260507234547 | 11 | 293 | 0.0 | 0.0 | 0.00 | 0.00 | 1.85 | 87 | 1002.3 |
| 20260507233528 | 11 | 248 | 0.0 | 0.0 | 0.00 | 0.00 | 1.85 | 89 | 1002.0 |
| 20260507232508 | 11 | 270 | 0.0 | 0.0 | 0.00 | 0.00 | 1.85 | 91 | 1002.4 |
| 20260507231957 | 11 | 270 | 0.0 | 0.0 | 0.00 | 0.00 | 1.85 | 91 | 1002.2 |
| 20260507231447 | 11 | 338 | 0.0 | 0.0 | 0.00 | 0.00 | 1.85 | 91 | 1002.5 |
| 20260507230936 | 11 | 338 | 0.0 | 0.0 | 0.00 | 0.00 | 1.85 | 92 | 1002.1 |
| 20260507230426 | 11 | 270 | 0.0 | 0.0 | 0.00 | 0.00 | 1.85 | 93 | 1002.4 |
| 20260507225917 | 11 | 293 | 0.0 | 0.0 | 0.00 | 0.00 | 1.85 | 94 | 1002.2 |
| 20260507225407 | 11 | 270 | 0.0 | 0.0 | 0.00 | 0.00 | 1.85 | 95 | 1002.5 |
| 20260507224346 | 11 | 293 | 0.0 | 0.0 | 0.00 | 0.00 | 1.85 | 94 | 1002.3 |
| 20260507223327 | 11 | 270 | 0.0 | 0.0 | 0.00 | 0.00 | 1.85 | 92 | 1002.7 |
| 20260507222815 | 12 | 293 | 0.0 | 0.0 | 0.00 | 0.00 | 1.85 | 91 | 1002.6 |
| 20260507222306 | 12 | 248 | 0.0 | 0.0 | 0.00 | 0.00 | 1.85 | 90 | 1002.5 |
| 20260507220225 | 12 | 270 | 0.0 | 0.0 | 0.00 | 0.00 | 1.85 | 85 | 1001.9 |
| 20260507215715 | 12 | 270 | 0.0 | 0.0 | 0.00 | 0.00 | 1.85 | 85 | 1001.6 |
| 20260507214655 | 13 | 270 | 0.0 | 0.0 | 0.00 | 0.00 | 1.85 | 83 | 1001.3 |
| 20260507214145 | 13 | 270 | 0.0 | 0.0 | 0.00 | 0.00 | 1.85 | 83 | 1001.2 |
| 20260507213634 | 13 | 248 | 0.0 | 0.0 | 0.00 | 0.00 | 1.85 | 83 | 1001.4 |
| 20260507213125 | 13 | 270 | 0.0 | 0.0 | 0.00 | 0.00 | 1.85 | 83 | 1001.1 |
| 20260507212615 | 13 | 270 | 0.0 | 0.0 | 0.00 | 0.00 | 1.85 | 83 | 1001.2 |
| 20260507211555 | 13 | 270 | 0.0 | 0.0 | 0.00 | 0.00 | 1.85 | 83 | 1001.0 |
| 20260507211044 | 13 | 315 | 0.0 | 0.0 | 0.00 | 0.00 | 1.85 | 83 | 1001.4 |
| 20260507210023 | 13 | 270 | 0.0 | 0.0 | 0.00 | 0.00 | 1.85 | 82 | 1001.5 |
| 20260507205514 | 13 | 270 | 0.0 | 0.0 | 0.00 | 0.00 | 1.85 | 82 | 1001.6 |
| 20260507205004 | 13 | 293 | 0.0 | 0.0 | 0.00 | 0.00 | 1.85 | 82 | 1001.5 |
| 20260507204453 | 13 | 270 | 0.0 | 0.0 | 0.00 | 0.00 | 1.85 | 81 | 1001.3 |
| 20260507203944 | 13 | 315 | 0.0 | 0.0 | 0.00 | 0.00 | 1.85 | 81 | 1001.0 |
| 20260507203433 | 13 | 270 | 0.0 | 0.0 | 0.00 | 0.00 | 1.85 | 80 | 1001.2 |
| 20260507202923 | 13 | 293 | 0.0 | 0.0 | 0.00 | 0.00 | 1.85 | 79 | 1001.2 |
| 20260507201903 | 13 | 293 | 0.0 | 0.0 | 0.00 | 0.00 | 1.85 | 78 | 1000.9 |
| 20260507200843 | 13 | 270 | 0.0 | 0.0 | 0.00 | 0.00 | 1.85 | 77 | 1001.2 |
| 20260507200333 | 13 | 270 | 0.0 | 0.0 | 0.00 | 0.00 | 1.85 | 77 | 1000.9 |
| 20260507195823 | 13 | 270 | 0.0 | 0.0 | 0.00 | 0.00 | 1.85 | 76 | 1000.5 |
| 20260507195312 | 13 | 293 | 0.0 | 0.0 | 0.00 | 0.00 | 1.85 | 76 | 1000.7 |
| 20260507194803 | 14 | 270 | 0.0 | 0.0 | 0.00 | 0.00 | 1.85 | 76 | 1000.4 |
| 20260507194253 | 14 | 270 | 0.0 | 0.0 | 0.00 | 0.00 | 1.85 | 76 | 999.9 |
| 20260507193742 | 14 | 270 | 0.0 | 0.0 | 0.00 | 0.00 | 1.85 | 75 | 999.4 |
| 20260507192722 | 14 | 270 | 0.0 | 0.0 | 0.00 | 0.00 | 1.85 | 75 | 999.0 |
| 20260507192212 | 14 | 270 | 0.0 | 0.0 | 0.00 | 0.00 | 1.85 | 75 | 998.8 |
| 20260507191153 | 14 | 270 | 0.0 | 0.0 | 0.00 | 0.00 | 1.85 | 73 | 999.2 |
| 20260507190642 | 15 | 248 | 0.0 | 0.0 | 0.00 | 0.00 | 1.85 | 72 | 999.6 |
| 20260507190132 | 14 | 270 | 0.0 | 0.0 | 0.00 | 0.00 | 1.85 | 73 | 999.8 |
| 20260507185112 | 15 | 248 | 0.0 | 0.0 | 0.00 | 0.00 | 1.85 | 74 | 1000.3 |
| 20260507184601 | 14 | 270 | 0.0 | 0.0 | 0.00 | 0.00 | 1.85 | 75 | 1000.7 |
| 20260507184051 | 14 | 270 | 0.0 | 0.0 | 0.00 | 0.00 | 1.85 | 75 | 1001.7 |
| 20260507183541 | 14 | 270 | 0.0 | 0.0 | 0.00 | 0.00 | 1.85 | 76 | 1001.7 |
| 20260507183031 | 14 | 293 | 0.0 | 0.0 | 0.00 | 0.00 | 1.85 | 76 | 1001.6 |
| 20260507181457 | 14 | 270 | 0.0 | 0.0 | 0.00 | 0.00 | 1.85 | 77 | 1001.4 |
| 20260507180947 | 14 | 293 | 0.0 | 0.0 | 0.00 | 0.00 | 1.85 | 77 | 1001.5 |
| 20260507180440 | 14 | 270 | 0.0 | 0.0 | 0.00 | 0.00 | 1.85 | 77 | 1001.6 |
| 20260507175930 | 14 | 248 | 0.0 | 0.0 | 0.00 | 0.00 | 1.85 | 77 | 1001.9 |
| 20260507175420 | 13 | 315 | 0.0 | 0.0 | 0.00 | 0.00 | 1.85 | 77 | 1002.4 |
| 20260507174909 | 14 | 293 | 0.0 | 0.0 | 0.00 | 0.00 | 1.85 | 77 | 1002.9 |
| 20260507174401 | 14 | 293 | 0.0 | 0.0 | 0.00 | 0.00 | 1.85 | 78 | 1003.0 |
| 20260507173851 | 13 | 293 | 0.0 | 0.0 | 0.00 | 0.00 | 1.85 | 78 | 1003.0 |
| 20260507173339 | 13 | 248 | 0.0 | 0.0 | 0.00 | 0.00 | 1.85 | 78 | 1002.8 |
| 20260507172829 | 13 | 293 | 0.0 | 0.0 | 0.00 | 0.00 | 1.85 | 78 | 1003.0 |
| 20260507172319 | 13 | 293 | 0.0 | 0.0 | 0.00 | 0.00 | 1.85 | 77 | 1002.8 |
| 20260507171809 | 13 | 293 | 0.0 | 0.0 | 0.00 | 0.00 | 1.85 | 77 | 1002.6 |
| 20260507171258 | 13 | 293 | 0.0 | 0.0 | 0.00 | 0.00 | 1.85 | 78 | 1002.2 |
| 20260507170749 | 13 | 270 | 0.0 | 0.0 | 0.00 | 0.00 | 1.85 | 78 | 1001.5 |
| 20260507165728 | 13 | 248 | 0.0 | 0.0 | 0.00 | 0.00 | 1.85 | 79 | 1000.6 |
| 20260507164158 | 14 | 248 | 0.0 | 0.0 | 0.00 | 0.00 | 1.85 | 78 | 1001.0 |
| 20260507163649 | 14 | 270 | 0.0 | 0.0 | 0.00 | 0.00 | 1.85 | 79 | 1001.2 |
| 20260507162628 | 14 | 270 | 0.0 | 0.0 | 0.00 | 0.00 | 1.85 | 78 | 1001.8 |
| 20260507162118 | 14 | 248 | 0.0 | 0.0 | 0.00 | 0.00 | 1.85 | 78 | 1001.9 |
| 20260507161608 | 14 | 248 | 0.0 | 0.0 | 0.00 | 0.00 | 1.85 | 78 | 1002.4 |
| 20260507161058 | 14 | 248 | 0.0 | 0.0 | 0.00 | 0.00 | 1.85 | 79 | 1002.5 |
| 20260507160037 | 14 | 270 | 0.0 | 0.0 | 0.00 | 0.00 | 1.85 | 80 | 1002.2 |
| 20260507155530 | 15 | 225 | 0.0 | 0.0 | 0.00 | 0.00 | 1.85 | 81 | 1002.1 |
| 20260507155018 | 14 | 270 | 0.0 | 0.0 | 0.00 | 0.00 | 1.85 | 81 | 1001.7 |
| 20260507153957 | 14 | 248 | 0.0 | 0.0 | 0.00 | 0.00 | 1.85 | 82 | 1001.6 |
| 20260507153447 | 14 | 248 | 0.0 | 0.0 | 0.00 | 0.00 | 1.85 | 81 | 1001.2 |
| 20260507151917 | 14 | 270 | 0.0 | 0.0 | 0.00 | 0.00 | 1.85 | 83 | 1001.2 |